Вернуться в каталог

STARLINK-32010

АктивенСвязьVLEO
NORAD 60279·PAYLOAD·🇺🇸 United States

Запущен Jul 28, 2024 с Cape Canaveral Space Force Station

Loading…

Ближайшие Пролёты (ближайшие 24 часа)

TLE

СвежийSource: CelesTrak SupGP

Эпоха: Sep 14, 2026, 21:24 UTC

1 60279C 24132B   26257.89215278  .00052849  00000+0  16996-2 0  2577
2 60279  53.1567 252.4949 0001306  97.5100 270.5673 15.31673331    14

Отслеживайте STARLINK-32010 в реальном времени с AllMySat

Download on the App Store